Location: Newark
(22.3060°N, 114.2134°E)
Time: 08:35:57
(UTC+00:00)

Tiros 1 despin weight - Pass Details

Date: 31 July 2021
Orbit: 593 x 641 km, 48.2° (Epoch: 27 September)

Event Time Altitude Azimuth Distance (km) Brightness Sun altitude
Rises 12:41:03 0° 325° (NW) 2,919 ? -21.0°
Reaches altitude 10° 12:43:31 10° 333° (NNW) 2,003 ? -21.5°
Maximum altitude 12:47:49 38° 42° (NE) 954 ? -22.4°
Enters shadow 12:48:05 38° 51° (NE) 959 ? -22.4°
